Forside
METAR-TAF:

METAR-TAF

Lufthavne :

Faribault Municipal Airport

Faribault, Minnesota, USA

Breddekreds: 44-20N, længdekreds: 093-19W, højde: 322 m

Aktuelle vejr

Denne rapport blev lavet for 25 minutter siden, kl. 06:55 UTC
Vind 3 kt fra sydsydvest
Temperatur -1°C
Fugtighed 93%
Tryk 1013 hPa
Sigt: 16.1 km
skyfri

METAR: KFBL 290655Z AUTO 20003KT 10SM CLR M01/M02 A2991 RMK AO2

Tid: 01:20 (07:20 UTC)


TAF: fraværende

Vejrobservationer og prognoser fra mere end 4000 lufthavne (METAR og TAF).

De gule og røde prikker repræsenterer de meteorologiske stationer.

Flyt musen over at se navnet på stationen.

Så klik over at se vejr observationer og prognoser.

At skifte det kort: Klik på de grønne knapper med et sort kors for at zoome ind; på den grønne knap med en bindestreg for at zoome ud; eller på de grønne pile for tilstødende kort.


METAR-TAF: